Погода в Простеёве

Чехия     49°28′20″N   17°06′25″E
темп.,
°C
ветер,
м/с
пор.,
м/с
влажн.,
%
обл.,
%
осадки,
мм/ч
давл.,
гПа
погр.,
м
15 апреля, чт
чт1523:00+2ссз51075100 0.0 1024698
02:00+1ссз3876100 0.3 1024458
05:000сз31071100 0.0 1023417
08:00+2сз5973100 0.0 1023642
11:00+3сз6869100 0.0 10231129
14:00+3сз7974100 0.2 1023980
17:00+3сз71076100 0.1 1022963
20:00+1сз51088100 0.2 1022669
16 апреля, пт
пт1623:000сз6118886 0.0 1022517
02:000сз5109087 0.0 1021470
05:000сз4892100 0.0 1021506
08:00+1сз578493 0.1 1021513
11:00+3сз557995 0.0 1022716
14:00+3сз4691100 0.1 1022487
17:00+2сз3795100 0.0 1022372
20:00+2сз259281 0.0 1022292
17 апреля, сб
сб1723:00+2сз249177 0.0 1023245
02:00+2сз1391100 0.0 1022220
05:00+2сз249697 0.0 1021213
08:00+3ссз2392100 0.0 1022360
11:00+4с2294100 0.1 1021441
14:00+5с2289100 0.1 1021509
17:00+5ссв2382100 0.1 1021460
20:00+4с1189100 0.1 102146
18 апреля, вс
вс1823:00+4ссв1291100 0.0 1021105
02:00+3с2494100 0.0 1021338
05:00+3ссз3596100 0.3 1020371
08:00+4ссз2596100 0.4 1020387
11:00+7с4578100 0.1 1019942
14:00+7ссв3584100 0.3 1019623
17:00+8с3476100 0.3 1018762
20:00+6с3786100 0.5 1019187
19 апреля, пн
пн1923:00+5ссз3791100 0.1 1019218
02:00+4ссз4795100 0.1 1019190
05:00+4ссз4890100 0.0 1018287
08:00+6с5983100 0.0 1018560
11:00+8ссв5876100 0.1 10171042
14:00+10св7970100 0.9 10161399
17:00+8св5983100 0.9 10161054
20:00+7с3790100 1.4 1015353